User: anonymous   Login
Location: Prague
(50.0830°N, 14.4670°E)
Time: 14:01:59
(UTC+01:00)
Language:

First-Move - Orbit

View from above orbital plane
View from above orbital plane
View from above satellite
View from above satellite

Ground track
Ground track

The orbit data is extracted from the following two-line orbital elements,

1 39439U 13066Z   21339.89102413  .00001379  00000-0  17043-3 0  9998
2 39439  97.6167 317.3823 0063368 317.1782  42.4505 14.82968895433356
Epoch (UTC): 05 December 2021 21:23:04
Eccentricity: 0.0063368
inclination: 97.6167°
perigee height: 575 km
apogee height: 664 km
right ascension of ascending node: 317.3823°
argument of perigee: 317.1782°
revolutions per day: 14.82968895
mean anomaly at epoch: 42.4505°
orbit number at epoch: 43335

The dashed part of the orbit path shows where the satellite is in the earth's shadow,  

DLR